Content
SEND FEEDBACK

Daily
Averages
Monthly
Summary
United States of America

EDNA, TEXAS


Home > North America > United States > Texas
Elevation: 70 feet     Latitude: 28 57N     Longitude: 096 41W

WEATHER
 
SELECT A DAY
Number of Records: 225,763;   Date Range: 1/1/95 - 9/3/14
 
SHARE

PRINT THIS DATA

[ ← Previous Day ]
WEATHER ALMANAC - JANUARY 23, 2013
[ Next Day → ]
[ °C ]   °F
Weather ElementAverageHighLow
Temperature60.8 °F75.9 °F (12:51 pm)48 °F (5:51 am)
Dewpoint55.6 °F61 °F (10:51 am)48 °F (4:51 am)
Humidity85 %100 % (3:51 am)54 % (12:51 pm)
Barometer30.29 in30.35 in (10:03 am)30.23 in (3:51 pm)
Wind Speed6.5 mph16.1 mph (4:51 pm)
Weather ElementAverage
Visibility6.3 mi
Wind DirectionESE (112.2 °)

Weather ElementTotal
Precipitation---
Heating Degree Days3.1 (Base 65)
Growing Degree Days12 (Base 50)
Averaged from 37 records on January 23, 2013
WEATHER CONDITIONS BREAKOUT
WIND DIRECTION BREAKOUT
WEATHER BY HOUR - JANUARY 23, 2013
[ °C ]   °F
Local TimeTemperatureDewpointHumidityBarometerVisibilityWind DirectionWind SpeedGust SpeedPrecipitationEventsConditions
1:51 AM52.0 °F51.1 °F97 %30.28 in0.2 miCalmFogFog
2:51 AM51.1 °F50.0 °F96 %30.28 in0.2 miNE (40°)4.6 mphFogFog
3:51 AM48.9 °F48.9 °F100 %30.27 in0.2 miCalmFogFog
4:19 AM48.2 °F48.2 °F100 %30.27 in0.2 miCalmFogFog
4:51 AM48.9 °F48.0 °F97 %30.27 in0.2 miNNE (30°)3.5 mphFogFog
5:38 AM48.2 °F48.2 °F100 %30.27 in0.5 miCalmFogFog
5:51 AM48.0 °F48.0 °F100 %30.27 in0.5 miCalmFogFog
5:59 AM48.2 °F48.2 °F100 %30.27 in1.5 miNE (40°)4.6 mphMostly Cloudy
6:06 AM48.2 °F48.2 °F100 %30.28 in2.5 miNE (40°)4.6 mphScattered Clouds
6:35 AM48.2 °F48.2 °F100 %30.28 in3.0 miNE (50°)3.5 mphMostly Cloudy
6:51 AM48.9 °F48.9 °F100 %30.28 in3.0 miNE (40°)3.5 mphOvercast
7:18 AM50.0 °F48.2 °F94 %30.29 in2.5 miNE (50°)4.6 mphScattered Clouds
7:51 AM50.0 °F48.9 °F96 %30.30 in2.0 miENE (60°)3.5 mphClear
7:56 AM51.8 °F50.0 °F94 %30.30 in3.0 miNE (50°)3.5 mphPartly Cloudy
8:51 AM57.0 °F55.0 °F93 %30.32 in4.0 miESE (110°)3.5 mphClear
9:51 AM63.0 °F59.0 °F87 %30.34 in10.0 miSE (140°)3.5 mphMostly Cloudy
10:03 AM64.4 °F60.8 °F88 %30.35 in10.0 miSE (140°)4.6 mphScattered Clouds
10:12 AM64.4 °F60.8 °F88 %30.35 in10.0 miSE (140°)5.8 mphMostly Cloudy
10:21 AM66.2 °F60.8 °F83 %30.35 in10.0 miSSE (160°)5.8 mphPartly Cloudy
10:51 AM70.0 °F61.0 °F73 %30.35 in10.0 miSSE (160°)10.4 mphMostly Cloudy
11:15 AM71.6 °F60.8 °F69 %30.34 in10.0 miSouth (170°)10.4 mphScattered Clouds
11:24 AM73.4 °F60.8 °F65 %30.34 in10.0 miSouth (170°)12.7 mphMostly Cloudy
11:40 AM73.4 °F60.8 °F65 %30.34 in10.0 miSouth (180°)11.5 mphMostly Cloudy
11:51 AM71.6 °F60.8 °F69 %30.33 in10.0 miSouth (170°)9.2 mphMostly Cloudy
12:14 PM73.4 °F59.0 °F61 %30.31 in10.0 miSouth (180°)9.2 mphOvercast
12:51 PM75.9 °F57.9 °F54 %30.28 in10.0 miSSW (210°)12.7 mphMostly Cloudy
1:51 PM73.9 °F59.0 °F59 %30.26 in10.0 miSSE (150°)8.1 mphOvercast
2:51 PM73.9 °F60.1 °F62 %30.24 in10.0 miSE (140°)12.7 mphOvercast
3:51 PM73.9 °F60.1 °F62 %30.23 in10.0 miSSE (160°)11.5 mphMostly Cloudy
4:51 PM73.0 °F60.1 °F64 %30.23 in10.0 miSouth (170°)16.1 mphClear
5:51 PM69.1 °F61.0 °F75 %30.24 in10.0 miSSE (160°)12.7 mphClear
6:51 PM66.0 °F60.1 °F81 %30.25 in10.0 miSSE (160°)10.4 mphClear
7:51 PM62.6 °F60.8 °F94 %30.25 in10.0 miSouth (170°)8.1 mphClear
8:51 PM61.0 °F59.0 °F93 %30.25 in10.0 miSouth (170°)5.8 mphClear
9:51 PM60.1 °F59.0 °F96 %30.25 in7.0 miSouth (170°)5.8 mphClear
10:51 PM61.0 °F59.0 °F93 %30.25 in6.0 miSouth (180°)6.9 mphClear
11:51 PM61.0 °F60.1 °F97 %30.26 in7.0 miSouth (190°)6.9 mphClear
Hourly data recorded from KVCT, located miles away from Edna, Texas







STORIES FROM OUR PARTNERS